sat.trackr.live / text

‹ back to catalog

NANOSAT-1

NORAD 28493 · 2004-049B

PAYLOAD ACTIVE UNKNOWN

§ Identity

Operator
Country
SPN
Launch date
2004-12-18
Launch site
FRGUI
Launch vehicle
Mass (kg)
RCS (m²)
0.27

External: N2YO · Heavens-Above · Gunter

§ Orbital elements

Epoch: 2026-09-03T20:28:27.369120Z

Period
97.28 min
Inclination
98.2387°
Eccentricity
0.0004927
Mean motion
14.80292323 rev/d
Perigee alt
624.9 km
Apogee alt
631.9 km
Semi-major
7,006.5 km
B*
8.6646e-5
RAAN
25.4935°
Arg perigee
52.4033°
Mean anomaly
307.7625°
Rev number
16,708

§ Raw data

NANOSAT-11 28493U 04049B   26246.85309455  .00000604  00000+0  86646-4 0  99952 28493  98.2387  25.4935 0004927  52.4033 307.7625 14.80292323167088

JSON: /api/v1/satellites/28493 · /tle

For live sub-satellite position, see the globe view (requires WebGL).

§ Visibility from observer

Set your observer location to see the next 7 days of passes ≥ 10°. The values pass through the URL so the page stays shareable.

No JS? Fill the form by hand. The geolocation button needs JavaScript.